Location: Ulm
(48.3980°N, 9.9777°E)
Time: 00:15:04
(UTC+02:00)

Tiangong 2 - Visible Passes

Search period start: 24 May 2018 00:00
Search period end: 03 June 2018 00:00
Orbit: 382 x 385 km, 42.8° (Epoch: 23 May)

Date Brightness Start Highest point End Pass type
(mag) Time Alt. Az. Time Alt. Az. Time Alt. Az.
24 May 2.2 23:11:05 10° WSW 23:13:17 27° SSW 23:13:17 27° SSW visible
25 May 2.1 22:11:28 10° SW 22:14:13 27° S 22:16:22 14° ESE visible
25 May 3.4 23:47:50 10° WSW 23:48:34 14° WSW 23:48:34 14° WSW visible
26 May 2.1 22:48:04 10° WSW 22:50:50 28° S 22:51:30 25° SSE visible
27 May 2.1 21:48:22 10° WSW 21:51:10 29° S 21:53:58 10° ESE visible
27 May 3.0 23:25:00 10° WSW 23:26:32 18° SW 23:26:32 18° SW visible
28 May 2.4 22:25:07 10° WSW 22:27:46 25° S 22:29:18 17° SSE visible
29 May 3.1 23:02:19 10° WSW 23:04:13 15° SSW 23:04:13 15° SSW visible
30 May 2.8 22:02:13 10° WSW 22:04:38 20° SSW 22:06:57 11° SSE visible
31 May 3.5 22:40:15 10° SW 22:41:02 11° SSW 22:41:48 10° SSW visible
